MMS 1 (40482 NORAD) Tracking and Keplerian Element Data

This shows tracking and keplerian element data for the satellite.

Feedback or suggestion? Click here.




ElementValue
Catalog40482
NameMMS 1
Epoch Orbit138
Epoch Day34.83335648
Epoch Year2025
RAAN358.9997
Inclination60.3127
Eccentricity0.8856978
Argument of Perigee156.4392
Mean Anonmoly99.2454
Mean Motion0.28493185
Decay Rate-1.946E-05
L11 40482U 15011A 25034.83335648 -.00001946 00000+0 00000+0 0 9999
L22 40482 60.3127 358.9997 8856978 156.4392 99.2454 0.28493185 1385



Live tracking and technical data element details for MMS 1 (NORAD 40482). MMS 1 can be tracked NOW for your location showing map with azimuth and elevation plus other details from your city location.







IsCatalogInMostPopularTable: catalog: 40482, numindb: 680
Update: records affected: 1



GetName: 40482 MMS 1

Hit Count: updated at: Sat, 17 May 2025 05:49:32 GMT